Tracking 26544 objects as of 9-Dec-2022
HD Live streaming from Space Station
objects crossing your sky now

STARLINK-5050

Track STARLINK-5050 now!
10-day predictions
STARLINK-5050 is classified as:


NORAD ID: 53890
Int'l Code: 2022-119E
Perigee: 352.4 km
Apogee: 361.1 km
Inclination: 53.2 °
Period: 91.5 minutes
Semi major axis: 6727 km
RCS: Unknown
Launch date: September 24, 2022
Source: United States (US)
Launch site: AIR FORCE EASTERN TEST RANGE (AFETR)
aabbcc
Your satellite tracking list
Your tracking list is empty




NASA's NSSDC Master Catalog

Two Line Element Set (TLE):
1 53890U 22119E   22343.01688678  .00009675  00000-0  73091-4 0  9999
2 53890  53.2141 240.0830 0006428 295.8480  64.1877 15.73251547 12260
Source of the keplerian elements: AFSPC